Location: Barrialito
(10.1025°N, 66.8154°W)
Time: 16:58:43
(UTC+00:00)

NOAA 6 - Pass Details

Date: 10 September 2024
Orbit: 769 x 782 km, 98.6° (Epoch: 15 October)

Event Time Altitude Azimuth Distance (km) Brightness Sun altitude
Rises 23:12:21 0° 165° (SSE) 3,232 7.0 -11.1°
Reaches altitude 10° 23:14:39 10° 164° (SSE) 2,305 6.3 -11.6°
Maximum altitude 23:19:44 81° 77° (ENE) 780 3.9 -12.9°
Drops below altitude 10° 23:24:49 10° 350° (N) 2,304 6.7 -14.1°
Sets 23:27:07 0° 350° (N) 3,231 7.5 -14.7°
